• Join FlightAware (Why Join?)
  • Login
  • US Flag 
06:55AM EDT


 

Airport Tracker/Info


-or-


 

Live Flight TrackerFlight Track Log ✈ CTL78 ✈ 19-Apr-2013 ✈ KYIP - KBKL

Flight Track Log - Related Links

Times and Time Zones

All times are in EDT time to prevent confusion due to time zone crossing. See the CTL78 flight status page for this flight to view local times or setup timezone preferences in your user account.

Time Position Orientation Groundspeed Altitude Reporting Facility
EDT Latitude Longitude Course Direction KTS MPH feet Rate Location/Type
09:45PM 42.2214 -83.5547 238° Southwest 106 122 1,500  Level FAA TRACON SMA TRACON (SMA)
09:45PM 42.2133 -83.5650 223° Southwest 103 119 1,800 1,080 Climbing FAA TRACON SMA TRACON (SMA)
09:45PM 42.2053 -83.5753 223° Southwest 103 119 2,300 1,140 Climbing FAA TRACON SMA TRACON (SMA)
09:46PM 42.2006 -83.5814 224° Southwest 102 117 2,500 780 Climbing FAA TRACON SMA TRACON (SMA)
09:46PM 42.1925 -83.5914 223° Southwest 101 116 2,800 900 Climbing FAA TRACON SMA TRACON (SMA)
09:46PM 42.1858 -83.5989 220° Southwest 100 115 3,100 900 Climbing FAA TRACON SMA TRACON (SMA)
09:47PM 42.1758 -83.5994 182° South 122 140 3,400 900 Climbing FAA TRACON SMA TRACON (SMA)
09:47PM 42.1631 -83.5978 174° South 120 138 3,700 900 Climbing FAA TRACON SMA TRACON (SMA)
09:47PM 42.1525 -83.5958 172° South 122 140 4,000 420 Climbing FAA TRACON SMA TRACON (SMA)
09:48PM 42.1411 -83.5931 170° South 132 152 4,000 -180 Level FAA TRACON SMA TRACON (SMA)
09:48PM 42.1256 -83.5900 172° South 143 165 3,900  Descending FAA TRACON SMA TRACON (SMA)
09:48PM 42.1122 -83.5881 174° South 152 175 4,000 120 Climbing FAA TRACON SMA TRACON (SMA)
09:49PM 42.0983 -83.5864 175° South 158 182 4,000  Level FAA TRACON SMA TRACON (SMA)
09:49PM 42.0825 -83.5728 147° Southeast 166 191 4,000  Level FAA TRACON SMA TRACON (SMA)
09:49PM 42.0717 -83.5569 133° Southeast 194 223 4,000  Level FAA TRACON SMA TRACON (SMA)
09:50PM 42.0603 -83.5406 133° Southeast 191 220 4,000  Level FAA TRACON SMA TRACON (SMA)
09:50PM 42.0475 -83.5211 132° Southeast 193 222 4,000  Level FAA TRACON SMA TRACON (SMA)
09:50PM 42.0372 -83.5050 131° Southeast 195 224 4,000  Level FAA TRACON SMA TRACON (SMA)
09:51PM 42.0275 -83.4808 118° Southeast 201 231 4,000  Level FAA TRACON SMA TRACON (SMA)
09:51PM 42.0203 -83.4561 111° Southeast 203 234 4,000  Level FAA TRACON SMA TRACON (SMA)
09:51PM 42.0142 -83.4344 111° Southeast 205 236 4,000  Level FAA TRACON SMA TRACON (SMA)
09:52PM 42.0081 -83.4125 111° Southeast 205 236 4,000  Level FAA TRACON SMA TRACON (SMA)
09:52PM 42.0008 -83.3842 109° East 203 234 4,000  Level FAA TRACON SMA TRACON (SMA)
09:52PM 41.9964 -83.3656 108° East 204 235 4,000  Level FAA TRACON SMA TRACON (SMA)
09:53PM 41.9889 -83.3400 112° Southeast 205 236 4,000 600 Level FAA TRACON SMA TRACON (SMA)
09:53PM 41.9814 -83.3131 111° Southeast 196 226 4,400 900 Climbing FAA TRACON SMA TRACON (SMA)
09:53PM 41.9758 -83.2947 112° Southeast 167 192 4,600 600 Climbing FAA TRACON SMA TRACON (SMA)
09:54PM 41.9703 -83.2756 111° Southeast 178 205 4,800 420 Climbing FAA TRACON SMA TRACON (SMA)
09:54PM 41.9631 -83.2517 112° Southeast 180 207 4,900 240 Climbing FAA TRACON SMA TRACON (SMA)
09:54PM 41.9572 -83.2311 111° Southeast 189 217 5,000 120 Climbing FAA TRACON SMA TRACON (SMA)
09:55PM 41.9514 -83.2097 110° East 196 226 5,000  Level FAA TRACON SMA TRACON (SMA)
09:55PM 41.9433 -83.1833 112° Southeast 197 227 5,000 -180 Level FAA TRACON SMA TRACON (SMA)
09:55PM 41.9375 -83.1619 110° East 198 228 4,900 -180 Descending FAA TRACON SMA TRACON (SMA)
09:56PM 41.9319 -83.1403 109° East 199 229 4,900 120 Level FAA TRACON SMA TRACON (SMA)
09:56PM 41.9244 -83.1142 111° Southeast 197 227 5,000 120 Climbing FAA TRACON SMA TRACON (SMA)
09:56PM 41.9158 -83.0947 121° Southeast 196 226 5,000  Level Cleveland Center
09:57PM 41.8983 -83.0269 109° East 204 235 5,000  Level Cleveland Center
09:58PM 41.8856 -82.9511 103° East 199 229 5,000  Level Cleveland Center
09:59PM 41.8658 -82.8892 113° Southeast 202 232 5,100 60 Climbing Cleveland Center
10:00PM 41.8561 -82.8525 110° East 199 229 5,100  Level Cleveland Center
10:01PM 41.8344 -82.7847 113° Southeast 197 227 5,100  Level Cleveland Center
10:02PM 41.8131 -82.7172 113° Southeast 198 228 5,100  Level Cleveland Center
10:03PM 41.7892 -82.6494 115° Southeast 200 230 5,100  Level Cleveland Center
10:04PM 41.7675 -82.5819 113° Southeast 200 230 5,100  Level Cleveland Center
10:05PM 41.7478 -82.5064 109° East 202 232 5,100 -180 Level Cleveland Center
10:06PM 41.7264 -82.4250 109° East 210 242 4,800 -300 Descending Cleveland Center
10:07PM 41.7064 -82.3631 113° Southeast 215 247 4,600 -180 Descending Cleveland Center
10:08PM 41.6867 -82.2903 110° East 209 241 4,500 -180 Descending Cleveland Center
10:09PM 41.6667 -82.2258 113° Southeast 207 238 4,300 -360 Descending Cleveland Center
10:10PM 41.6469 -82.1419 107° East 209 241 3,800 -360 Descending Cleveland Center
10:11PM 41.6311 -82.0806 109° East 207 238 3,600 -360 Descending Cleveland Center
10:12PM 41.6133 -82.0106 109° East 203 234 3,200 -540 Descending Cleveland Center
10:13PM 41.5956 -81.9408 109° East 201 231 2,600 -480 Descending Cleveland Center
10:14PM 41.5775 -81.8656 108° East 190 219 2,200 -300 Descending Cleveland Center
10:15PM 41.5575 -81.7958 111° Southeast 182 209 2,000 -300 Descending Cleveland Center
10:16PM 41.5539 -81.7319 94° East 180 207 1,700 -300 Descending Cleveland Center
10:17PM 41.5442 -81.6789 104° East 152 175 1,400 -300 Descending Cleveland Center